Overview Statistics Trail Chart Weather Telemetry Raw packets
 

This is the latest recevied weather packets stored in our database for station/object OE6ACM-10. If no packets are shown the sender has not sent any weather packets the latest 10 day(s).

<< 13 14 15 16 17 18 19 >>
Time Temp. Humidity Pressure Rain* Wind** Luminosity Snow
1788595789 22.22° C 100% 931.8 hPa - - - -
1788595489 22.22° C 100% 931.7 hPa - - - -
1788595189 22.22° C 100% 931.7 hPa - - - -
1788594889 22.22° C 100% 931.5 hPa - - - -
1788594604 22.22° C 100% 931.4 hPa - - - -
1788594289 22.22° C 100% 931.4 hPa - - - -
1788593989 23.33° C 100% 931.1 hPa - - - -
1788593689 23.33° C 100% 931.3 hPa - - - -
1788593389 23.89° C 100% 931.2 hPa - - - -
1788593089 24.44° C 100% 930.7 hPa - - - -
1788592460 25° C 100% 929.7 hPa - - - -
1788592160 25° C 100% 929.7 hPa - - - -
1788591860 25.56° C 100% 929.6 hPa - - - -
1788591560 25.56° C 100% 929.5 hPa - - - -
1788591260 25.56° C 100% 929.4 hPa - - - -
1788590960 25.56° C 100% 929.4 hPa - - - -
1788590660 25° C 100% 929.3 hPa - - - -
1788590360 25° C 100% 929.1 hPa - - - -
1788590060 25° C 100% 929.2 hPa - - - -
1788589760 25° C 100% 929.1 hPa - - - -
1788589460 25° C 100% 929 hPa - - - -
1788589160 25° C 100% 929 hPa - - - -
1788588860 25° C 100% 929 hPa - - - -
1788588560 25° C 100% 928.9 hPa - - - -
1788588260 24.44° C 100% 928.7 hPa - - - -

* Rain since midnight (hover to see other rain measurements)
** Current wind speed in m/s (hover to see current wind gust speed)